• En España
  • Lista de países
  • Para 7 días
  • Temperatura del agua
  • Mapa Satelital
  • El tiempo en el mapa
  • Informadores
  • user-avatar
    Iniciar sesión

    Tiempo cada hora Sofia

    Hoy, 25 Septiembre, Martes

    Tiempo Temperatura Precipitaciones Viento Presión Humedad
    00:00 +10°C° 0 mm 4 mps 716 mmHg 72%
    01:00 +9°C° 0 mm 3 mps 716 mmHg 72%
    02:00 +9°C° 0 mm 3 mps 717 mmHg 73%
    03:00 +8°C° 0 mm 3 mps 717 mmHg 76%
    04:00 +7°C° 0 mm 3 mps 717 mmHg 79%
    05:00 +6°C° 0 mm 2 mps 717 mmHg 82%
    06:00 +7°C° 0 mm 2 mps 718 mmHg 76%
    07:00 +8°C° 0 mm 3 mps 718 mmHg 70%
    08:00 +8°C° 0 mm 3 mps 718 mmHg 65%
    09:00 +10°C° 0 mm 3 mps 719 mmHg 54%
    10:00 +12°C° 0 mm 4 mps 719 mmHg 44%
    11:00 +14°C° 0 mm 5 mps 719 mmHg 33%
    12:00 +14°C° 0 mm 5 mps 719 mmHg 31%
    13:00 +15°C° 0 mm 5 mps 719 mmHg 30%
    14:00 +15°C° 0 mm 5 mps 718 mmHg 28%
    15:00 +15°C° 0 mm 5 mps 718 mmHg 29%
    16:00 +14°C° 0 mm 5 mps 718 mmHg 31%
    17:00 +13°C° 0 mm 4 mps 718 mmHg 33%
    18:00 +11°C° 0 mm 4 mps 719 mmHg 38%
    19:00 +9°C° 0 mm 3 mps 719 mmHg 44%
    20:00 +7°C° 0 mm 2 mps 720 mmHg 50%
    21:00 +6°C° 0 mm 2 mps 720 mmHg 52%
    22:00 +7°C° 0 mm 1 mps 721 mmHg 55%
    23:00 +6°C° 0 mm 1 mps 721 mmHg 58%

    Mañana, 26 Septiembre, Miércoles

    Tiempo Temperatura Precipitaciones Viento Presión Humedad
    00:00 +6°C° 0 mm 1 mps 721 mmHg 60%
    01:00 +5°C° 0 mm 1 mps 721 mmHg 62%
    02:00 +5°C° 0 mm 1 mps 721 mmHg 64%
    03:00 +5°C° 0 mm 1 mps 721 mmHg 65%
    04:00 +4°C° 0 mm 1 mps 721 mmHg 66%
    05:00 +4°C° 0 mm 1 mps 721 mmHg 67%
    06:00 +5°C° 0 mm 1 mps 722 mmHg 62%
    07:00 +6°C° 0 mm 1 mps 722 mmHg 57%
    08:00 +8°C° 0 mm 1 mps 723 mmHg 52%
    09:00 +9°C° 0 mm 2 mps 723 mmHg 45%
    10:00 +12°C° 0 mm 2 mps 723 mmHg 39%
    11:00 +12°C° 0 mm 3 mps 723 mmHg 33%
    12:00 +13°C° 0 mm 3 mps 722 mmHg 31%
    13:00 +14°C° 0 mm 4 mps 722 mmHg 29%
    14:00 +14°C° 0 mm 4 mps 721 mmHg 27%
    15:00 +14°C° 0 mm 4 mps 721 mmHg 28%
    16:00 +13°C° 0 mm 4 mps 721 mmHg 30%
    17:00 +12°C° 0 mm 4 mps 721 mmHg 31%
    18:00 +10°C° 0 mm 3 mps 721 mmHg 37%
    19:00 +8°C° 0 mm 2 mps 721 mmHg 44%
    20:00 +7°C° 0 mm 1 mps 721 mmHg 50%
    21:00 +6°C° 0 mm 1 mps 722 mmHg 51%
    22:00 +6°C° 0 mm 1 mps 722 mmHg 53%
    23:00 +5°C° 0 mm 1 mps 722 mmHg 54%

    Pasado mañana, 27 Septiembre, Jueves

    Tiempo Temperatura Precipitaciones Viento Presión Humedad
    00:00 +5°C° 0 mm 1 mps 722 mmHg 55%
    01:00 +5°C° 0 mm 1 mps 722 mmHg 55%
    02:00 +5°C° 0 mm 1 mps 722 mmHg 56%
    03:00 +5°C° 0 mm 1 mps 721 mmHg 57%
    04:00 +4°C° 0 mm 1 mps 721 mmHg 58%
    05:00 +4°C° 0 mm 1 mps 721 mmHg 59%
    06:00 +5°C° 0 mm 1 mps 721 mmHg 54%
    07:00 +7°C° 0 mm 1 mps 721 mmHg 49%
    08:00 +8°C° 0 mm 1 mps 721 mmHg 45%
    09:00 +9°C° 0 mm 2 mps 721 mmHg 39%
    10:00 +12°C° 0 mm 3 mps 721 mmHg 33%
    11:00 +14°C° 0 mm 4 mps 720 mmHg 28%
    12:00 +14°C° 0 mm 4 mps 720 mmHg 26%
    13:00 +15°C° 0 mm 4 mps 719 mmHg 25%
    14:00 +16°C° 0 mm 5 mps 718 mmHg 23%
    15:00 +15°C° 0 mm 4 mps 718 mmHg 24%
    16:00 +15°C° 0 mm 4 mps 717 mmHg 26%
    17:00 +14°C° 0 mm 4 mps 717 mmHg 27%
    18:00 +12°C° 0 mm 3 mps 717 mmHg 33%
    19:00 +9°C° 0 mm 2 mps 717 mmHg 39%
    20:00 +7°C° 0 mm 2 mps 717 mmHg 45%
    21:00 +8°C° 0 mm 1 mps 717 mmHg 46%
    22:00 +7°C° 0 mm 1 mps 716 mmHg 46%
    23:00 +7°C° 0 mm 1 mps 716 mmHg 47%

    28 Septiembre, Viernes

    Tiempo Temperatura Precipitaciones Viento Presión Humedad
    00:00 +7°C° 0 mm 1 mps 716 mmHg 47%
    01:00 +7°C° 0 mm 1 mps 716 mmHg 47%
    02:00 +7°C° 0 mm 1 mps 716 mmHg 47%
    03:00 +6°C° 0 mm 1 mps 716 mmHg 47%
    04:00 +6°C° 0 mm 1 mps 715 mmHg 48%
    05:00 +6°C° 0 mm 1 mps 715 mmHg 49%
    06:00 +8°C° 0 mm 1 mps 715 mmHg 46%
    07:00 +9°C° 0 mm 1 mps 715 mmHg 43%
    08:00 +11°C° 0 mm 1 mps 715 mmHg 40%
    09:00 +13°C° 0 mm 2 mps 715 mmHg 37%
    10:00 +15°C° 0 mm 2 mps 715 mmHg 33%
    11:00 +18°C° 0 mm 3 mps 715 mmHg 29%
    12:00 +19°C° 0 mm 3 mps 715 mmHg 28%
    13:00 +19°C° 0 mm 3 mps 714 mmHg 28%
    14:00 +20°C° 0 mm 3 mps 714 mmHg 27%
    15:00 +20°C° 0 mm 3 mps 713 mmHg 30%
    16:00 +19°C° 0 mm 3 mps 713 mmHg 32%
    17:00 +18°C° 0 mm 3 mps 713 mmHg 35%
    18:00 +16°C° 0 mm 2 mps 712 mmHg 42%
    19:00 +14°C° 0 mm 2 mps 712 mmHg 49%
    20:00 +11°C° 0 mm 1 mps 712 mmHg 57%
    21:00 +11°C° 0 mm 1 mps 712 mmHg 58%
    22:00 +11°C° 0 mm 1 mps 712 mmHg 59%
    23:00 +10°C° 0 mm 1 mps 712 mmHg 61%

    29 Septiembre, Sábado

    Tiempo Temperatura Precipitaciones Viento Presión Humedad
    00:00 +10°C° 0 mm 1 mps 712 mmHg 62%
    01:00 +10°C° 0 mm 1 mps 712 mmHg 62%
    02:00 +9°C° 0 mm 1 mps 712 mmHg 63%
    03:00 +9°C° 0 mm 1 mps 711 mmHg 64%
    04:00 +9°C° 0 mm 1 mps 711 mmHg 65%
    05:00 +9°C° 0 mm 1 mps 711 mmHg 66%
    06:00 +10°C° 0 mm 1 mps 711 mmHg 62%
    07:00 +11°C° 0 mm 0 mps 711 mmHg 57%
    08:00 +12°C° 0 mm 0 mps 712 mmHg 53%
    09:00 +16°C° 0 mm 1 mps 712 mmHg 48%
    10:00 +19°C° 0 mm 1 mps 712 mmHg 44%
    11:00 +21°C° 0 mm 1 mps 712 mmHg 39%
    12:00 +21°C° 0 mm 2 mps 711 mmHg 37%
    13:00 +23°C° 0 mm 2 mps 711 mmHg 36%
    14:00 +24°C° 0 mm 2 mps 711 mmHg 34%
    15:00 +23°C° 0 mm 2 mps 711 mmHg 36%
    16:00 +23°C° 0 mm 2 mps 711 mmHg 37%
    17:00 +21°C° 0 mm 2 mps 711 mmHg 39%
    18:00 +19°C° 0 mm 2 mps 711 mmHg 46%
    19:00 +16°C° 0 mm 1 mps 711 mmHg 52%
    20:00 +14°C° 0 mm 1 mps 711 mmHg 59%
    21:00 +14°C° 0 mm 1 mps 711 mmHg 61%
    22:00 +13°C° 0 mm 1 mps 711 mmHg 62%
    23:00 +13°C° 0 mm 1 mps 712 mmHg 64%

    30 Septiembre, Domingo

    Tiempo Temperatura Precipitaciones Viento Presión Humedad
    00:00 +13°C° 0 mm 1 mps 712 mmHg 64%
    01:00 +13°C° 0 mm 1 mps 712 mmHg 65%
    02:00 +12°C° 0 mm 1 mps 712 mmHg 66%
    03:00 +12°C° 0 mm 1 mps 712 mmHg 67%
    04:00 +12°C° 0 mm 1 mps 712 mmHg 68%
    05:00 +11°C° 0 mm 1 mps 712 mmHg 70%
    06:00 +13°C° 0 mm 1 mps 713 mmHg 66%
    07:00 +14°C° 0 mm 1 mps 713 mmHg 62%
    08:00 +15°C° 0 mm 1 mps 713 mmHg 58%
    09:00 +18°C° 0 mm 1 mps 714 mmHg 51%
    10:00 +21°C° 0 mm 1 mps 714 mmHg 44%
    11:00 +23°C° 0 mm 1 mps 714 mmHg 37%
    12:00 +23°C° 0 mm 1 mps 714 mmHg 35%
    13:00 +24°C° 0 mm 1 mps 714 mmHg 34%
    14:00 +25°C° 0 mm 1 mps 713 mmHg 32%
    15:00 +24°C° 0 mm 1 mps 713 mmHg 34%
    16:00 +23°C° 0 mm 1 mps 713 mmHg 36%
    17:00 +22°C° 0 mm 1 mps 712 mmHg 38%
    18:00 +20°C° 0 mm 1 mps 712 mmHg 44%
    19:00 +18°C° 0 mm 1 mps 712 mmHg 50%
    20:00 +15°C° 0 mm 1 mps 712 mmHg 56%
    21:00 +14°C° 0 mm 1 mps 712 mmHg 58%
    22:00 +14°C° 0 mm 1 mps 712 mmHg 60%
    23:00 +13°C° 0 mm 1 mps 712 mmHg 63%
    Mostrar más